Location: Mascot Post Office (historical)
(40.2645°N, 99.5462°W)
Time: 16:35:46
(UTC+00:00)

Nadezhda 3 Rocket - Pass Details

Date: 14 July 2020
Orbit: 957 x 999 km, 82.9° (Epoch: 05 August)

Event Time Altitude Azimuth Distance (km) Brightness Sun altitude
Rises 04:16:12 0° 353° (N) 3,722 8.1 -19.2°
Reaches altitude 10° 04:18:45 10° 355° (N) 2,764 7.2 -19.5°
Maximum altitude 04:25:06 80° 82° (E) 1,006 4.0 -20.2°
Enters shadow 04:27:59 35° 165° (SSE) 1,536 4.5 -20.5°
